Location: M?digepalle
(16.1753°N, 80.3496°E)
Time: 08:40:12
(UTC+00:00)

Cosmos 1992 Rocket - Pass Details

Date: 29 October 2020
Orbit: 759 x 765 km, 74.0° (Epoch: 28 November)

Event Time Altitude Azimuth Distance (km) Brightness Sun altitude
Rises 12:22:39 0° 192° (SSW) 3,208 7.6 -3.9°
Reaches altitude 10° 12:25:00 10° 192° (SSW) 2,283 6.8 -4.4°
Maximum altitude 12:30:12 89° 103° (ESE) 762 4.0 -5.6°
Drops below altitude 10° 12:35:23 10° 14° (NNE) 2,284 6.2 -6.8°
Sets 12:37:45 0° 14° (NNE) 3,209 7.0 -7.4°
